Regional Weather Roundup
Issued by NWS Albany, NY

Home | Current Version | Previous Version | Text Only | Print | Product List | Glossary On
Versions: 1 2 3 4 5 6 7 8 9 10 11 12 13 14 15 16 17 18 19 20 21 22 23 24 25 26 27 28 29 30 31 32 33 34 35 36 37 38 39 40 41 42 43 44 45 46 47 48 49 50
688
ASUS41 KALY 170610
RWRALY

NEW YORK STATE HOURLY WEATHER ROUNDUP
NATIONAL WEATHER SERVICE ALBANY NY
200 AM EDT THU AUG 17 2017

NOTE: "FAIR" INDICATES FEW OR NO CLOUDS BELOW 12,000 FEET WITH NO
SIGNIFICANT WEATHER AND/OR NO OBSTRUCTIONS TO VISIBILITY.

NYZ032-033-038>043-046>054-057>066-NYZ062>081-082-084-170700-
EAST


CITY           SKY/WX    TMP DP  RH WIND       PRES   REMARKS
ALBANY         CLEAR     60  54  80 CALM      30.07R
GLENS FALLS    CLEAR     50  48  93 CALM      30.06S FOG
POUGHKEEPSIE   CLEAR     61  59  93 CALM      30.05R
NEWBURGH       PTCLDY    64  63  94 CALM      30.07R
MONTGOMERY     CLEAR     61  59  93 CALM      30.06R
WHITE PLAINS   PTCLDY    68  59  73 CALM      30.04R
ISLIP          MOCLDY    71  67  87 CALM      30.02S
NEW YORK CITY  PTCLDY    75  61  61 NE7       30.02R
CENTRAL PARK   CLEAR     74  60  61 NE6       30.06R
$$

NYZ005>009-017-018-044>046-055-056-170700-
CENTRAL


CITY           SKY/WX    TMP DP  RH WIND       PRES   REMARKS
FULTON         CLEAR     50  48  93 CALM      30.09S
SYRACUSE       CLEAR     55  52  89 CALM      30.08S
ROME           CLEAR     51  50  96 CALM      30.11R
ELMIRA         CLEAR     58  58 100 CALM      30.09S
BINGHAMTON     CLEAR     57  53  86 NE5       30.11S
MONTICELLO     CLEAR     56  54  93 NW3       30.11S
$$

NYZ026>034-041>043-087-170700-
NORTH


CITY           SKY/WX    TMP DP  RH WIND       PRES   REMARKS
WATERTOWN      CLEAR     50  50 100 CALM      30.08S
FORT DRUM      NOT AVBL
OGDENSBURG     FAIR      52  51  97 CALM      30.07F
MASSENA        CLEAR     53  52  96 SW5       30.07S
SARANAC LAKE   CLEAR     40  40 100 CALM      30.09F
PLATTSBURGH    CLEAR     53  48  83 CALM      30.04S
$$

NYZ001>004-010>016-019>021-085-170700-
WEST


CITY           SKY/WX    TMP DP  RH WIND       PRES   REMARKS
NIAGARA FALLS  CLEAR     63  58  83 E3        30.06F
BUFFALO        CLEAR     63  58  83 E5        30.07S
DUNKIRK        CLEAR     66  60  81 S10       30.04F
JAMESTOWN      CLEAR     63  59  88 CALM      30.09F
WELLSVILLE     CLEAR     59  56  89 SE5       30.13F
ROCHESTER      CLEAR     58  55  90 CALM      30.08S
PENN YAN       CLEAR     56  53  90 CALM      30.10S
$$

             KEY
       WCI = WIND CHILL INDEX
       VSB = VISIBILITY
       HX  = HEAT INDEX
$$




USA.gov is the U.S. government's official web portal to all federal, state and local government web resources and services.